SCP
0 0 0 0 0 0 0 0 0 0 0 0 0 0 0 0 0 0 0 0 0 0 0 0 0 0 0 0 0 0 0 0 0 0 0 0 0 0 0 1 1 1 1 1
0 0 0 0 0 0 0 0 0 0 0 0 0 0 0 0 0 0 0 0 0 0 0 0 0 0 0 0 0 0 0 0 0 0 0 0 0 0 0 0 1 1 1 1
0 0 0 0 0 0 0 0 0 0 0 0 0 0 0 0 0 0 0 0 0 0 0 0 0 0 0 0 0 0 0 0 0 0 0 0 0 0 0 0 1 1 1 2
0 0 0 0 0 0 0 0 0 0 0 0 0 0 0 0 0 0 0 0 0 0 0 0 0 0 0 0 0 0 0 0 0 0 0 0 0 0 0 0 1 1 2 2
0 0 0 0 0 0 0 0 0 0 0 0 0 0 0 0 0 0 0 0 0 0 0 0 0 0 0 0 0 0 0 0 0 0 0 0 0 0 0 0 1 1 2 2
0 0 0 0 0 0 0 0 0 0 0 0 0 0 0 0 0 0 0 0 0 0 0 0 0 0 0 0 0 0 0 0 0 0 0 0 0 0 0 0 0 1 1 1
0 0 0 0 0 0 0 0 0 0 0 0 0 0 0 0 0 0 0 0 0 0 0 0 0 0 0 0 0 0 0 0 0 0 0 0 0 0 0 0 0 0 1 1
0 0 0 0 0 0 0 0 0 0 0 0 0 0 0 0 0 0 0 0 0 0 0 0 0 0 0 0 0 0 0 0 0 0 0 0 0 0 0 0 0 0 0 0
0 0 0 0 0 0 0 0 0 0 0 0 0 0 0 0 0 0 0 0 0 0 0 0 0 0 0 0 0 0 0 0 0 0 0 0 0 0 0 0 0 0 0 0
0 0 0 0 0 0 0 0 0 0 0 0 0 0 0 0 0 0 0 0 0 0 0 0 0 0 0 0 0 0 0 0 0 0 0 0 0 0 0 0 0 0 0 0
0 0 0 0 0 0 0 0 0 0 0 0 0 0 0 0 0 0 0 0 0 0 0 0 0 0 0 0 0 0 0 0 0 0 0 0 0 0 0 0 0 0 0 0
0 0 0 0 0 0 0 0 0 0 0 0 0 0 0 0 0 0 0 0 0 0 0 0 0 0 0 0 0 0 0 0 0 0 0 0 0 0 0 0 0 0 0 0
0 0 0 0 0 0 0 0 0 0 0 0 0 0 0 0 0 0 0 0 0 0 0 0 0 0 0 0 0 0 0 0 0 0 0 0 0 0 0 0 0 0 0 0
0 0 0 0 0 0 0 0 0 0 0 0 0 0 0 0 0 0 0 0 0 0 0 0 0 0 0 0 0 0 0 0 0 0 0 0 0 0 0 0 0 0 0 0
0 0 0 0 0 0 0 0 0 0 0 0 0 0 0 0 0 0 0 0 0 0 0 0 0 0 0 0 0 0 0 0 0 0 0 0 0 0 0 0 0 0 0 0
0 0 0 0 0 0 0 0 0 0 0 0 0 0 0 0 0 0 0 0 0 0 0 0 0 0 0 0 0 0 0 0 0 0 0 0 0 0 0 0 0 0 0 0
0 0 0 0 0 0 0 0 0 0 0 0 0 0 0 0 0 0 0 0 0 0 0 0 0 0 0 0 0 0 0 0 0 0 0 0 0 0 0 0 0 0 0 0
0 0 0 0 0 0 0 0 0 0 0 0 0 0 0 0 0 0 0 0 0 0 0 0 0 0 0 0 0 0 0 0 0 0 0 0 0 0 0 0 0 0 0 0
0 0 0 0 0 0 0 0 0 0 0 0 0 0 0 0 0 0 0 0 0 0 0 0 0 0 0 0 0 0 0 0 0 0 0 0 0 0 0 0 0 0 0 0
0 0 0 0 0 0 0 0 0 0 0 0 0 0 0 0 0 0 0 0 0 0 0 0 0 0 0 0 0 0 0 0 0 0 0 0 0 0 0 0 0 0 0 0
0 0 0 0 0 0 0 0 0 0 0 0 0 0 0 0 0 0 0 0 0 0 0 0 0 0 0 0 0 0 0 0 0 0 0 0 0 0 0 0 0 0 0 0
0 0 0 0 0 0 0 0 0 0 0 0 0 0 0 0 0 0 0 0 0 0 0 0 0 0 0 0 0 0 0 0 0 0 0 0 0 0 0 0 0 0 0 0
0 0 0 0 0 0 0 0 0 0 0 0 0 0 0 0 0 0 0 0 0 0 0 0 0 0 0 0 0 0 0 0 0 0 0 0 0 0 0 0 0 0 0 0
0 0 0 0 0 0 0 0 0 0 0 0 0 0 0 0 0 0 0 0 0 0 0 0 0 0 0 0 0 0 0 0 0 0 0 0 0 0 0 0 0 0 0 0
0 0 0 0 0 0 0 0 0 0 0 0 0 0 0 0 0 0 0 0 0 0 0 0 0 0 0 0 0 0 0 0 0 0 0 0 0 0 0 0 0 0 0 0
0 0 0 0 0 0 0 0 0 0 0 0 0 0 0 0 0 0 0 0 0 0 0 0 0 0 0 0 0 0 0 0 0 0 0 0 0 0 0 0 0 0 0 0
Wind_Speed
3 3 4 4 5 4 3 3 3 1 2 3 6 8 7 7 7 8 7 7 7 6 5 5 5 4 3 3 3 3 3 2 2 1 1 1 1 2 2 2 4 4 4 4
2 4 4 2 2 2 2 3 3 1 2 2 4 9 8 9 10 9 9 8 8 7 6 6 6 5 4 4 3 3 3 2 2 1 1 1 1 1 2 2 3 3 3 3
4 1 1 3 2 2 2 3 2 1 1 2 3 7 8 7 8 8 8 8 8 9 8 7 6 6 5 4 4 3 3 2 2 1 1 2 1 1 1 2 2 2 3 3
2 2 2 2 2 3 3 0 1 1 1 3 4 5 5 6 7 8 8 8 8 8 8 8 7 6 6 5 4 4 4 3 2 1 1 2 2 1 1 1 1 2 2 3
2 1 2 3 2 2 1 1 1 1 2 3 4 5 6 4 6 9 10 9 8 8 8 8 8 7 6 5 4 4 4 4 3 2 2 2 2 1 1 1 1 1 2 2
1 1 1 1 1 1 3 1 0 2 1 5 6 6 6 5 7 6 8 9 8 7 7 7 6 6 6 5 5 4 4 4 3 3 2 2 2 2 2 1 1 1 1 1
3 4 2 1 3 3 3 2 1 1 3 6 4 5 8 3 3 4 6 8 8 8 8 7 7 7 7 6 6 5 5 4 4 3 2 2 2 2 2 1 1 1 1 1
5 5 7 4 3 4 5 3 3 4 3 2 2 7 6 1 3 3 4 6 7 8 8 8 8 7 7 7 7 6 6 5 4 4 3 2 2 1 1 1 1 1 0 0
5 2 3 2 1 1 4 4 1 0 0 3 5 5 3 2 3 4 4 5 7 8 8 8 8 8 7 7 7 7 6 5 4 4 3 3 2 2 1 1 1 1 0 0
1 3 3 2 1 2 1 1 2 2 2 4 5 5 5 6 6 6 6 6 7 7 7 8 8 8 7 7 6 6 6 6 5 4 4 3 3 2 2 1 1 1 0 0
1 4 3 3 6 6 5 3 4 3 2 3 4 5 1 4 5 7 7 6 7 7 7 7 7 7 7 6 6 6 6 5 5 5 4 3 3 3 2 2 1 1 0 0
2 3 3 3 1 2 2 5 6 5 4 4 3 7 1 2 3 4 5 5 6 6 6 6 7 7 7 7 7 7 6 5 5 4 4 4 3 3 3 2 2 1 1 1
3 5 3 1 1 2 4 5 6 3 2 4 5 7 1 2 2 3 4 5 5 6 6 6 6 7 7 7 7 7 6 6 5 4 4 4 4 4 4 3 2 2 2 2
2 3 6 7 3 6 6 7 9 7 6 6 10 8 4 3 3 4 5 6 6 6 6 7 6 7 7 7 7 7 6 6 5 5 4 4 4 4 4 3 3 3 2 2
2 3 3 3 3 2 5 7 11 13 11 10 9 9 10 7 6 5 6 6 6 6 7 7 7 6 7 7 6 6 6 6 6 5 5 5 4 3 3 3 2 2 2 2
2 3 1 3 3 3 6 9 11 13 12 13 12 14 9 6 3 4 5 6 7 6 7 7 7 7 8 8 8 7 6 6 6 6 5 4 4 3 3 3 2 2 2 2
5 5 3 3 1 2 10 13 14 10 11 11 16 15 5 5 7 6 5 6 7 7 7 7 7 7 8 8 8 8 7 6 6 6 5 5 4 4 4 4 3 3 3 3
6 5 3 2 1 9 10 5 11 12 12 13 11 8 6 7 5 3 4 6 6 6 7 7 6 6 5 5 6 6 6 6 6 6 5 5 5 5 4 4 4 3 3 3
5 6 4 3 5 10 6 4 6 8 8 10 13 12 8 3 2 4 4 5 6 6 5 5 5 5 5 6 6 6 6 6 6 6 6 5 5 5 5 5 4 3 3 2
3 3 4 5 5 9 6 3 3 4 7 7 9 10 6 4 3 5 2 2 3 3 3 3 3 4 5 5 6 6 6 6 7 6 5 5 5 5 5 5 4 2 3 3
6 5 7 7 7 10 4 4 6 5 7 2 4 5 5 7 7 2 1 1 2 2 2 3 4 4 4 5 6 6 6 7 6 4 4 4 4 5 4 3 3 3 2 2
11 9 9 7 8 11 5 7 9 7 1 1 1 1 3 4 2 1 1 1 2 2 2 3 3 2 3 4 6 6 6 5 4 4 4 4 4 4 3 4 3 3 3 3
10 10 8 11 11 3 9 8 5 1 1 1 1 1 2 2 3 2 2 2 2 2 2 2 3 2 2 3 5 6 5 4 4 4 4 4 4 3 4 4 4 3 3 3
5 4 4 6 8 4 5 4 3 2 3 2 2 2 3 3 3 3 2 2 2 2 2 2 3 3 3 3 4 4 4 4 5 5 5 4 4 4 3 3 4 4 4 4
6 6 5 7 6 5 5 7 8 6 5 4 4 4 5 4 4 4 3 3 3 2 2 3 4 4 4 3 3 4 4 5 5 5 4 4 4 4 4 4 4 5 5 5
7 8 9 9 6 6 6 5 5 6 7 7 6 5 5 5 6 4 4 4 3 3 3 3 3 4 4 3 4 4 4 6 6 5 5 4 4 4 4 3 2 4 5 6
Wind_Direction
192 209 210 213 223 269 306 246 222 129 133 211 236 249 238 209 208 217 207 198 191 189 170 158 156 154 149 143 134 127 115 92 84 73 64 72 56 52 43 41 36 33 29 22
177 232 248 278 261 251 266 264 237 147 134 229 263 263 250 220 211 211 210 203 195 182 171 167 164 163 165 160 150 140 131 117 101 92 69 86 84 81 69 50 40 34 30 22
204 183 275 231 223 228 245 258 255 182 147 233 278 276 231 219 207 206 208 203 194 188 183 176 175 172 168 169 166 156 143 127 119 105 95 85 79 71 59 37 31 28 30 27
226 235 241 214 226 235 234 349 358 158 210 243 193 280 250 201 200 206 209 205 197 189 182 178 179 178 174 173 164 157 148 141 141 130 133 122 110 102 92 61 46 37 35 28
191 165 210 209 226 243 130 58 24 231 244 282 210 249 266 187 212 213 206 200 196 187 180 179 179 177 167 160 158 157 149 147 144 146 145 132 115 106 92 77 59 44 34 29
201 335 314 199 119 120 131 117 231 247 239 256 210 211 260 204 210 201 190 187 184 175 171 170 164 158 157 155 154 155 156 152 147 150 146 142 130 112 98 74 53 36 35 22
197 192 182 185 140 151 192 160 170 219 220 242 179 210 248 214 170 170 172 177 171 170 169 168 166 167 166 165 163 162 163 158 153 152 151 150 141 133 131 133 107 57 33 12
183 207 184 193 182 174 201 205 198 214 229 244 198 230 248 170 111 121 142 157 161 168 172 173 173 172 171 169 168 167 168 165 163 162 164 161 152 147 146 126 115 130 159 311
188 169 122 150 309 174 182 209 263 230 310 283 244 240 255 161 157 164 166 164 174 177 176 175 172 170 169 169 172 170 166 168 171 168 164 169 162 156 156 153 156 145 127 3
165 145 149 130 195 259 282 143 145 176 201 254 259 235 228 198 202 188 182 182 183 176 176 173 171 169 168 168 166 163 167 173 174 173 179 177 171 173 174 174 174 162 174 63
163 142 149 174 204 190 173 193 204 207 225 216 263 259 241 178 178 180 186 183 174 172 174 173 170 166 165 164 164 167 172 170 174 178 180 179 177 176 178 190 193 193 212 259
169 141 180 196 115 350 228 205 182 185 223 218 249 268 354 107 138 158 171 168 166 167 168 169 166 163 167 171 172 174 176 177 178 176 178 186 184 181 190 201 201 196 223 243
152 147 133 228 234 232 236 222 209 192 186 201 211 257 197 126 143 165 168 166 164 166 168 166 166 170 175 177 177 178 177 178 172 169 177 186 189 190 198 201 195 197 217 231
156 188 199 205 200 168 202 208 197 185 200 220 225 243 241 221 210 196 186 177 172 175 176 175 177 179 178 179 180 178 177 173 171 172 182 192 195 194 197 195 195 205 214 224
153 205 231 270 302 235 219 209 200 209 216 219 234 237 248 239 220 205 192 180 179 184 187 186 185 183 179 180 182 178 176 174 173 176 188 200 193 181 179 188 199 208 213 228
167 189 178 267 267 279 264 234 215 222 232 243 260 266 256 260 243 219 198 188 196 199 197 192 189 186 185 185 185 181 180 179 173 180 191 189 182 179 185 190 193 204 217 228
171 161 173 239 257 314 261 222 207 212 213 211 233 244 245 247 240 229 212 203 207 206 198 196 196 194 192 188 183 182 181 172 174 183 187 183 181 187 192 191 193 205 217 224
168 167 179 179 140 238 243 195 194 214 228 220 234 246 239 241 248 227 214 209 213 204 199 199 197 195 188 178 173 171 167 170 177 186 189 186 184 191 190 190 202 210 213 220
180 173 178 177 228 267 267 216 186 201 248 226 234 249 254 255 304 268 236 214 210 201 192 189 186 182 172 171 168 163 171 174 181 192 195 191 187 190 190 197 205 207 210 224
205 182 186 193 215 239 243 183 144 137 266 235 216 234 236 155 222 253 246 208 190 175 168 168 164 159 165 169 159 165 179 183 194 196 195 188 187 191 196 202 203 201 204 217
180 196 210 211 231 255 237 153 122 173 241 247 202 214 190 191 214 219 155 126 127 139 153 147 149 162 173 163 159 175 187 201 199 182 178 181 186 191 193 193 195 189 197 206
180 183 196 194 222 245 174 151 183 211 197 132 141 178 194 210 201 188 191 166 146 138 140 141 148 166 162 161 168 187 204 200 170 166 175 184 187 188 182 181 189 187 190 205
204 197 192 200 218 230 167 188 203 148 170 204 205 209 188 204 224 224 218 192 177 170 165 154 156 168 173 175 180 197 202 170 164 170 183 187 186 189 186 185 189 191 196 208
233 224 226 248 255 239 210 228 237 216 219 233 224 207 193 215 222 222 220 215 206 197 181 165 161 185 206 199 198 202 178 162 168 182 190 186 184 190 191 191 193 197 203 209
214 188 218 247 266 286 252 228 234 234 229 232 231 220 213 213 225 221 225 227 222 222 205 181 188 206 216 204 205 193 175 167 178 189 193 191 189 190 194 199 204 206 211 206
200 190 196 227 220 218 248 244 224 219 227 225 226 238 229 214 223 224 229 226 217 215 205 202 208 214 215 203 208 197 181 177 181 192 198 195 190 190 189 193 218 227 221 223